Location: Marcé
(47.5801°N, 0.3280°W)
Time: 19:29:06
(UTC+01:00)

Tiros 1 - Pass Details

Date: 01 December 2021
Orbit: 629 x 664 km, 48.4° (Epoch: 26 January)

Event Time Altitude Azimuth Distance (km) Brightness Sun altitude
Rises 23:33:57 0° 275° (W) 2,946 - -60.1°
Reaches altitude 10° 23:36:16 10° 276° (W) 2,042 - -60.3°
Maximum altitude 23:40:59 81° 4° (N) 662 - -60.8°
Drops below altitude 10° 23:45:46 10° 92° (E) 2,063 - -61.2°
Sets 23:48:07 0° 94° (E) 2,979 - -61.5°
